| time (UTC) | temp C | wind direction | speed KPH | gust KPH | rain 1hr cm | rain 24hr cm | rain mn cm | humidity % | barometer mb |
| 20260505112045 | 17 | 338 | 0.0 | 1.6 | 0.00 | 0.00 | 0.00 | 64 | 1011.9 |
| 20260505111543 | 16 | 279 | 0.0 | 0.0 | 0.00 | 0.00 | 0.00 | 66 | 1012.0 |
| 20260505111040 | 16 | 268 | 1.6 | 1.6 | 0.00 | 0.00 | 0.00 | 67 | 1012.0 |
| 20260505110536 | 16 | 113 | 1.6 | 3.2 | 0.00 | 0.00 | 0.00 | 71 | 1011.7 |
| 20260505102009 | 15 | 69 | 0.0 | 3.2 | 0.00 | 0.00 | 0.00 | 69 | 1011.6 |
| 20260505101507 | 16 | 198 | 1.6 | 3.2 | 0.00 | 0.00 | 0.00 | 69 | 1011.3 |
| 20260505101003 | 16 | 295 | 0.0 | 0.0 | 0.00 | 0.00 | 0.00 | 69 | 1011.4 |
| 20260505100500 | 15 | 313 | 0.0 | 3.2 | 0.00 | 0.00 | 0.00 | 71 | 1011.3 |
| 20260505095957 | 14 | 187 | 0.0 | 0.0 | 0.00 | 0.00 | 0.00 | 77 | 1011.1 |
| 20260505095453 | 14 | 257 | 1.6 | 1.6 | 0.00 | 0.00 | 0.00 | 77 | 1011.2 |
| 20260505094949 | 14 | 233 | 0.0 | 1.6 | 0.00 | 0.00 | 0.00 | 79 | 1010.9 |
| 20260505094446 | 14 | 100 | 1.6 | 3.2 | 0.00 | 0.00 | 0.00 | 74 | 1010.8 |
| 20260505093943 | 14 | 68 | 0.0 | 9.7 | 0.00 | 0.00 | 0.00 | 77 | 1010.8 |
| 20260505093439 | 13 | 165 | 0.0 | 1.6 | 0.00 | 0.00 | 0.00 | 79 | 1010.7 |
| 20260505092937 | 13 | 231 | 3.2 | 4.8 | 0.00 | 0.00 | 0.00 | 72 | 1010.8 |
| 20260505092434 | 14 | 169 | 0.0 | 0.0 | 0.00 | 0.00 | 0.00 | 78 | 1010.7 |
| 20260505091932 | 14 | 170 | 1.6 | 3.2 | 0.00 | 0.00 | 0.00 | 76 | 1010.6 |
| 20260505091429 | 14 | 237 | 1.6 | 3.2 | 0.00 | 0.00 | 0.00 | 78 | 1010.5 |
| 20260505090927 | 15 | 306 | 1.6 | 1.6 | 0.00 | 0.00 | 0.00 | 75 | 1010.6 |
| 20260505090425 | 15 | 151 | 0.0 | 0.0 | 0.00 | 0.00 | 0.00 | 72 | 1010.5 |
| 20260505085922 | 16 | 260 | 0.0 | 0.0 | 0.00 | 0.00 | 0.00 | 69 | 1010.4 |
| 20260505085420 | 16 | 187 | 3.2 | 3.2 | 0.00 | 0.00 | 0.00 | 67 | 1010.5 |
| 20260505084918 | 17 | 183 | 3.2 | 6.4 | 0.00 | 0.00 | 0.00 | 65 | 1010.6 |
| 20260505084416 | 16 | 249 | 0.0 | 11.3 | 0.00 | 0.00 | 0.00 | 63 | 1010.3 |
| 20260505083914 | 15 | 162 | 0.0 | 1.6 | 0.00 | 0.00 | 0.00 | 72 | 1010.4 |
| 20260505083411 | 15 | 162 | 3.2 | 3.2 | 0.00 | 0.00 | 0.00 | 74 | 1010.4 |
| 20260505082907 | 15 | 229 | 1.6 | 3.2 | 0.00 | 0.00 | 0.00 | 74 | 1010.3 |
| 20260505082403 | 16 | 340 | 0.0 | 3.2 | 0.00 | 0.00 | 0.00 | 70 | 1010.3 |
| 20260505081900 | 17 | 322 | 0.0 | 3.2 | 0.00 | 0.00 | 0.00 | 65 | 1010.1 |
| 20260505081356 | 17 | 251 | 1.6 | 3.2 | 0.00 | 0.00 | 0.00 | 62 | 1010.1 |
| 20260505080853 | 16 | 311 | 1.6 | 4.8 | 0.00 | 0.00 | 0.00 | 66 | 1010.1 |
| 20260505080349 | 15 | 150 | 0.0 | 4.8 | 0.00 | 0.00 | 0.00 | 75 | 1010.2 |
| 20260505075845 | 14 | 344 | 0.0 | 1.6 | 0.00 | 0.00 | 0.00 | 76 | 1009.9 |
| 20260505075342 | 15 | 264 | 3.2 | 4.8 | 0.00 | 0.00 | 0.00 | 74 | 1009.9 |
| 20260505074839 | 15 | 210 | 1.6 | 11.3 | 0.00 | 0.00 | 0.00 | 75 | 1010.0 |
| 20260505074336 | 13 | 222 | 1.6 | 11.3 | 0.00 | 0.00 | 0.00 | 76 | 1010.0 |
| 20260505073833 | 12 | 311 | 0.0 | 0.0 | 0.00 | 0.00 | 0.00 | 87 | 1009.8 |
| 20260505073331 | 12 | 312 | 0.0 | 0.0 | 0.00 | 0.00 | 0.00 | 86 | 1010.0 |
| 20260505072828 | 12 | 312 | 1.6 | 4.8 | 0.00 | 0.00 | 0.00 | 87 | 1010.1 |
| 20260505072324 | 12 | 294 | 0.0 | 0.0 | 0.00 | 0.00 | 0.00 | 86 | 1010.1 |
| 20260505071820 | 12 | 299 | 0.0 | 0.0 | 0.00 | 0.00 | 0.00 | 85 | 1010.2 |
| 20260505071317 | 12 | 296 | 0.0 | 0.0 | 0.00 | 0.00 | 0.00 | 86 | 1010.1 |
| 20260505070815 | 12 | 2 | 0.0 | 0.0 | 0.00 | 0.00 | 0.00 | 88 | 1009.9 |
| 20260505070311 | 11 | 233 | 0.0 | 0.0 | 0.00 | 0.00 | 0.00 | 93 | 1010.0 |
| 20260505065806 | 11 | 304 | 0.0 | 0.0 | 0.00 | 0.00 | 0.00 | 95 | 1009.8 |
| 20260505065304 | 11 | 300 | 0.0 | 0.0 | 0.00 | 0.00 | 0.00 | 95 | 1010.0 |
| 20260505064800 | 11 | 256 | 0.0 | 3.2 | 0.00 | 0.00 | 0.00 | 95 | 1009.9 |
| 20260505064258 | 10 | 290 | 0.0 | 1.6 | 0.00 | 0.00 | 0.00 | 96 | 1009.9 |
| 20260505063755 | 10 | 269 | 0.0 | 1.6 | 0.00 | 0.00 | 0.00 | 96 | 1010.1 |
| 20260505063252 | 11 | 268 | 0.0 | 0.0 | 0.00 | 0.00 | 0.00 | 96 | 1010.2 |
| 20260505062748 | 10 | 268 | 0.0 | 0.0 | 0.00 | 0.00 | 0.00 | 96 | 1010.1 |
| 20260505062246 | 10 | 23 | 0.0 | 0.0 | 0.00 | 0.00 | 0.00 | 97 | 1010.1 |
| 20260505061742 | 10 | 23 | 1.6 | 1.6 | 0.00 | 0.00 | 0.00 | 97 | 1010.1 |
| 20260505061240 | 10 | 23 | 0.0 | 0.0 | 0.00 | 0.00 | 0.00 | 97 | 1010.1 |
| 20260505060737 | 10 | 23 | 1.6 | 3.2 | 0.00 | 0.00 | 0.00 | 97 | 1010.1 |
| 20260505060235 | 10 | 267 | 0.0 | 1.6 | 0.00 | 0.00 | 0.00 | 97 | 1010.3 |
| 20260505055729 | 10 | 261 | 0.0 | 1.6 | 0.00 | 0.00 | 0.00 | 97 | 1010.3 |
| 20260505055226 | 10 | 342 | 1.6 | 3.2 | 0.00 | 0.00 | 0.00 | 96 | 1010.3 |
| 20260505054724 | 10 | 203 | 1.6 | 1.6 | 0.00 | 0.00 | 0.00 | 97 | 1010.2 |
| 20260505054216 | 11 | 204 | 1.6 | 1.6 | 0.00 | 0.00 | 0.00 | 97 | 1010.3 |
| 20260505053714 | 10 | 203 | 0.0 | 3.2 | 0.00 | 0.00 | 0.00 | 97 | 1010.3 |
| 20260505053210 | 10 | 203 | 0.0 | 0.0 | 0.00 | 0.00 | 0.00 | 97 | 1010.3 |
| 20260505052708 | 10 | 203 | 0.0 | 0.0 | 0.00 | 0.00 | 0.00 | 97 | 1010.2 |
| 20260505052204 | 10 | 203 | 0.0 | 0.0 | 0.00 | 0.00 | 0.00 | 97 | 1010.3 |
| 20260505051701 | 10 | 203 | 0.0 | 0.0 | 0.00 | 0.00 | 0.00 | 97 | 1010.1 |
| 20260505051159 | 10 | 203 | 0.0 | 0.0 | 0.00 | 0.00 | 0.00 | 97 | 1010.2 |
| 20260505050656 | 10 | 203 | 0.0 | 0.0 | 0.00 | 0.00 | 0.00 | 97 | 1010.0 |
| 20260505050156 | 10 | 203 | 0.0 | 0.0 | 0.00 | 0.00 | 0.00 | 97 | 1010.1 |
| 20260505041625 | 10 | 203 | 0.0 | 0.0 | 0.00 | 0.00 | 0.00 | 97 | 1009.7 |
| 20260505041123 | 10 | 203 | 0.0 | 0.0 | 0.00 | 0.00 | 0.00 | 97 | 1009.7 |
| 20260505040619 | 10 | 203 | 0.0 | 0.0 | 0.00 | 0.00 | 0.00 | 97 | 1009.8 |
| 20260505040117 | 10 | 203 | 0.0 | 0.0 | 0.00 | 0.00 | 0.00 | 96 | 1009.8 |
| 20260505035613 | 10 | 203 | 0.0 | 1.6 | 0.00 | 0.00 | 0.00 | 96 | 1009.6 |
| 20260505035109 | 10 | 203 | 0.0 | 0.0 | 0.00 | 0.00 | 0.00 | 96 | 1009.7 |
| 20260505034606 | 10 | 203 | 0.0 | 0.0 | 0.00 | 0.00 | 0.00 | 96 | 1009.6 |
| 20260505034103 | 10 | 203 | 0.0 | 0.0 | 0.00 | 0.00 | 0.00 | 96 | 1009.5 |
| 20260505033559 | 10 | 203 | 0.0 | 0.0 | 0.00 | 0.00 | 0.00 | 96 | 1009.7 |
| 20260505033058 | 10 | 203 | 0.0 | 0.0 | 0.00 | 0.00 | 0.00 | 96 | 1009.8 |
| 20260505032555 | 10 | 203 | 0.0 | 0.0 | 0.00 | 0.00 | 0.00 | 96 | 1009.8 |
| 20260505032051 | 10 | 203 | 0.0 | 0.0 | 0.00 | 0.00 | 0.00 | 96 | 1009.6 |
| 20260505031549 | 11 | 203 | 0.0 | 0.0 | 0.00 | 0.00 | 0.00 | 96 | 1009.6 |
| 20260505031045 | 11 | 203 | 0.0 | 0.0 | 0.00 | 0.00 | 0.00 | 95 | 1009.6 |
| 20260505030542 | 11 | 203 | 0.0 | 0.0 | 0.00 | 0.00 | 0.00 | 95 | 1009.6 |
| 20260505030038 | 11 | 203 | 0.0 | 0.0 | 0.00 | 0.00 | 0.00 | 96 | 1009.7 |
| 20260505025533 | 11 | 203 | 0.0 | 0.0 | 0.00 | 0.00 | 0.00 | 95 | 1009.8 |
| 20260505025033 | 11 | 203 | 0.0 | 0.0 | 0.00 | 0.00 | 0.00 | 95 | 1009.8 |
| 20260505024529 | 11 | 203 | 0.0 | 0.0 | 0.00 | 0.00 | 0.00 | 95 | 1009.8 |
| 20260505024026 | 11 | 203 | 0.0 | 0.0 | 0.00 | 0.00 | 0.00 | 95 | 1009.7 |
| 20260505023523 | 11 | 203 | 0.0 | 0.0 | 0.00 | 0.00 | 0.00 | 95 | 1009.8 |
| 20260505023021 | 11 | 203 | 0.0 | 0.0 | 0.00 | 0.00 | 0.00 | 95 | 1009.6 |
| 20260505022519 | 11 | 203 | 0.0 | 0.0 | 0.00 | 0.00 | 0.00 | 94 | 1009.4 |
| 20260505022016 | 11 | 203 | 0.0 | 1.6 | 0.00 | 0.00 | 0.00 | 94 | 1009.6 |
| 20260505021513 | 11 | 203 | 0.0 | 0.0 | 0.00 | 0.00 | 0.00 | 93 | 1009.6 |
| 20260505021009 | 11 | 203 | 0.0 | 0.0 | 0.00 | 0.00 | 0.00 | 93 | 1009.6 |
| 20260505020509 | 11 | 203 | 0.0 | 0.0 | 0.00 | 0.00 | 0.00 | 93 | 1009.6 |
| 20260505020006 | 11 | 203 | 0.0 | 0.0 | 0.00 | 0.00 | 0.00 | 93 | 1009.6 |
| 20260505015503 | 12 | 203 | 0.0 | 0.0 | 0.00 | 0.00 | 0.00 | 92 | 1009.6 |
| 20260505015000 | 12 | 203 | 0.0 | 0.0 | 0.00 | 0.00 | 0.00 | 92 | 1009.6 |
| 20260505014457 | 12 | 203 | 0.0 | 0.0 | 0.00 | 0.00 | 0.00 | 91 | 1009.6 |
| 20260505013954 | 12 | 203 | 0.0 | 0.0 | 0.00 | 0.00 | 0.00 | 91 | 1009.6 |
| 20260505013451 | 12 | 203 | 0.0 | 0.0 | 0.00 | 0.00 | 0.00 | 90 | 1009.4 |
| 20260505012948 | 12 | 203 | 0.0 | 0.0 | 0.00 | 0.00 | 0.00 | 88 | 1009.6 |
| 20260505012446 | 12 | 203 | 0.0 | 0.0 | 0.00 | 0.00 | 0.00 | 88 | 1009.7 |
| 20260505011943 | 13 | 203 | 0.0 | 0.0 | 0.00 | 0.00 | 0.00 | 87 | 1009.6 |
| 20260505011439 | 13 | 203 | 0.0 | 1.6 | 0.00 | 0.00 | 0.00 | 87 | 1009.6 |
| 20260505010936 | 13 | 203 | 0.0 | 1.6 | 0.00 | 0.00 | 0.00 | 86 | 1009.6 |
| 20260505010432 | 13 | 203 | 0.0 | 0.0 | 0.00 | 0.00 | 0.00 | 87 | 1009.5 |
| 20260505005928 | 13 | 203 | 0.0 | 0.0 | 0.00 | 0.00 | 0.00 | 86 | 1009.4 |
| 20260505005425 | 13 | 203 | 1.6 | 1.6 | 0.00 | 0.00 | 0.00 | 85 | 1009.5 |
| 20260505004922 | 14 | 203 | 0.0 | 0.0 | 0.00 | 0.00 | 0.00 | 85 | 1009.5 |
| 20260505004418 | 14 | 203 | 0.0 | 0.0 | 0.00 | 0.00 | 0.00 | 85 | 1009.7 |
| 20260505003915 | 15 | 203 | 0.0 | 0.0 | 0.00 | 0.00 | 0.00 | 84 | 1009.7 |
| 20260505003413 | 15 | 203 | 1.6 | 1.6 | 0.00 | 0.00 | 0.00 | 81 | 1009.8 |
| 20260505002909 | 15 | 203 | 0.0 | 0.0 | 0.00 | 0.00 | 0.00 | 80 | 1009.7 |
| 20260505002405 | 16 | 203 | 1.6 | 1.6 | 0.00 | 0.00 | 0.00 | 78 | 1009.7 |
| 20260505001904 | 16 | 203 | 0.0 | 0.0 | 0.00 | 0.00 | 0.00 | 78 | 1009.7 |
| 20260505001401 | 16 | 203 | 0.0 | 0.0 | 0.00 | 0.00 | 0.00 | 75 | 1009.6 |
| 20260505000858 | 17 | 203 | 0.0 | 0.0 | 0.00 | 0.00 | 0.00 | 75 | 1009.7 |
| 20260505000358 | 17 | 203 | 0.0 | 1.6 | 0.00 | 0.00 | 0.00 | 72 | 1009.7 |
| 20260504235852 | 21 | 250 | 1.6 | 1.6 | 0.00 | 0.00 | 0.00 | 60 | 1009.7 |
| 20260504235349 | 21 | 250 | 1.6 | 1.6 | 0.00 | 0.00 | 0.00 | 60 | 1009.9 |
| 20260504234845 | 21 | 302 | 3.2 | 3.2 | 0.00 | 0.00 | 0.00 | 52 | 1009.7 |
| 20260504234343 | 21 | 254 | 1.6 | 3.2 | 0.00 | 0.00 | 0.00 | 51 | 1009.6 |
| 20260504233840 | 21 | 324 | 4.8 | 6.4 | 0.00 | 0.00 | 0.00 | 50 | 1009.8 |
| 20260504233335 | 22 | 255 | 3.2 | 3.2 | 0.00 | 0.00 | 0.00 | 49 | 1009.9 |
| 20260504232833 | 22 | 236 | 1.6 | 3.2 | 0.00 | 0.00 | 0.00 | 49 | 1009.8 |
| 20260504232330 | 22 | 286 | 0.0 | 0.0 | 0.00 | 0.00 | 0.00 | 49 | 1009.9 |
| 20260504231826 | 21 | 248 | 3.2 | 3.2 | 0.00 | 0.00 | 0.00 | 49 | 1010.0 |
| 20260504231323 | 21 | 306 | 6.4 | 9.7 | 0.00 | 0.00 | 0.00 | 50 | 1009.9 |
| 20260504230819 | 21 | 313 | 3.2 | 3.2 | 0.00 | 0.00 | 0.00 | 52 | 1009.9 |
| 20260504230317 | 21 | 309 | 1.6 | 4.8 | 0.00 | 0.00 | 0.00 | 50 | 1009.9 |
| 20260504225816 | 21 | 260 | 3.2 | 9.7 | 0.00 | 0.00 | 0.00 | 50 | 1010.0 |
| 20260504225311 | 21 | 301 | 6.4 | 6.4 | 0.00 | 0.00 | 0.00 | 47 | 1009.9 |
| 20260504224809 | 21 | 96 | 3.2 | 9.7 | 0.00 | 0.00 | 0.00 | 48 | 1010.0 |
| 20260504224306 | 21 | 314 | 8.0 | 12.9 | 0.00 | 0.00 | 0.00 | 50 | 1010.1 |
| 20260504223802 | 21 | 256 | 8.0 | 9.7 | 0.00 | 0.00 | 0.00 | 48 | 1010.0 |
| 20260504223258 | 21 | 271 | 6.4 | 12.9 | 0.00 | 0.00 | 0.00 | 50 | 1009.9 |
| 20260504222755 | 21 | 300 | 4.8 | 17.7 | 0.00 | 0.00 | 0.00 | 48 | 1010.2 |
| 20260504222252 | 21 | 281 | 6.4 | 9.7 | 0.00 | 0.00 | 0.00 | 48 | 1009.7 |
| 20260504221750 | 22 | 276 | 1.6 | 4.8 | 0.00 | 0.00 | 0.00 | 48 | 1009.6 |
| 20260504221247 | 22 | 198 | 3.2 | 20.9 | 0.00 | 0.00 | 0.00 | 49 | 1009.8 |
| 20260504220743 | 22 | 268 | 6.4 | 16.1 | 0.00 | 0.00 | 0.00 | 47 | 1009.8 |
| 20260504220240 | 22 | 247 | 3.2 | 9.7 | 0.00 | 0.00 | 0.00 | 48 | 1009.9 |
| 20260504215737 | 22 | 313 | 9.7 | 14.5 | 0.00 | 0.00 | 0.00 | 50 | 1009.9 |
| 20260504215234 | 22 | 279 | 4.8 | 9.7 | 0.00 | 0.00 | 0.00 | 49 | 1009.9 |
| 20260504214730 | 22 | 243 | 8.0 | 14.5 | 0.00 | 0.00 | 0.00 | 47 | 1010.0 |
| 20260504214226 | 21 | 257 | 6.4 | 12.9 | 0.00 | 0.00 | 0.00 | 48 | 1010.0 |
| 20260504213723 | 22 | 272 | 6.4 | 17.7 | 0.00 | 0.00 | 0.00 | 47 | 1010.1 |
| 20260504213220 | 22 | 301 | 4.8 | 11.3 | 0.00 | 0.00 | 0.00 | 46 | 1010.0 |
| 20260504212717 | 22 | 246 | 12.9 | 17.7 | 0.00 | 0.00 | 0.00 | 46 | 1010.0 |
| 20260504212214 | 22 | 255 | 6.4 | 12.9 | 0.00 | 0.00 | 0.00 | 46 | 1009.9 |
| 20260504211711 | 23 | 225 | 8.0 | 16.1 | 0.00 | 0.00 | 0.00 | 45 | 1009.8 |
| 20260504211207 | 23 | 313 | 9.7 | 14.5 | 0.00 | 0.00 | 0.00 | 44 | 1009.6 |
| 20260504210704 | 23 | 317 | 3.2 | 16.1 | 0.00 | 0.00 | 0.00 | 46 | 1009.4 |
| 20260504210201 | 23 | 297 | 9.7 | 12.9 | 0.00 | 0.00 | 0.00 | 45 | 1009.3 |
| 20260504205658 | 23 | 240 | 6.4 | 6.4 | 0.00 | 0.00 | 0.00 | 44 | 1009.5 |
| 20260504205155 | 22 | 247 | 6.4 | 14.5 | 0.00 | 0.00 | 0.00 | 47 | 1009.6 |
| 20260504204654 | 22 | 315 | 8.0 | 12.9 | 0.00 | 0.00 | 0.00 | 47 | 1009.7 |
| 20260504204153 | 22 | 313 | 8.0 | 16.1 | 0.00 | 0.00 | 0.00 | 45 | 1009.8 |
| 20260504203651 | 22 | 294 | 9.7 | 12.9 | 0.00 | 0.00 | 0.00 | 45 | 1009.8 |
| 20260504203148 | 22 | 181 | 3.2 | 6.4 | 0.00 | 0.00 | 0.00 | 46 | 1009.6 |
| 20260504202643 | 22 | 240 | 1.6 | 11.3 | 0.00 | 0.00 | 0.00 | 47 | 1009.7 |
| 20260504202140 | 22 | 211 | 3.2 | 4.8 | 0.00 | 0.00 | 0.00 | 50 | 1009.9 |
| 20260504201637 | 21 | 235 | 8.0 | 16.1 | 0.00 | 0.00 | 0.00 | 49 | 1009.9 |
| 20260504201135 | 21 | 323 | 3.2 | 9.7 | 0.00 | 0.00 | 0.00 | 48 | 1010.0 |
| 20260504200632 | 21 | 310 | 6.4 | 11.3 | 0.00 | 0.00 | 0.00 | 48 | 1010.1 |
| 20260504200128 | 21 | 261 | 4.8 | 9.7 | 0.00 | 0.00 | 0.00 | 49 | 1010.2 |
| 20260504195624 | 21 | 280 | 4.8 | 20.9 | 0.00 | 0.00 | 0.00 | 49 | 1010.3 |
| 20260504195121 | 22 | 314 | 8.0 | 11.3 | 0.00 | 0.00 | 0.00 | 48 | 1010.1 |
| 20260504194618 | 21 | 234 | 8.0 | 11.3 | 0.00 | 0.00 | 0.00 | 47 | 1010.1 |
| 20260504194114 | 22 | 258 | 4.8 | 11.3 | 0.00 | 0.00 | 0.00 | 48 | 1010.2 |
| 20260504193610 | 22 | 312 | 12.9 | 22.5 | 0.00 | 0.00 | 0.00 | 49 | 1010.2 |
| 20260504193109 | 22 | 314 | 6.4 | 16.1 | 0.00 | 0.00 | 0.00 | 48 | 1010.3 |
| 20260504192606 | 22 | 257 | 6.4 | 12.9 | 0.00 | 0.00 | 0.00 | 46 | 1010.2 |
| 20260504192104 | 22 | 264 | 12.9 | 20.9 | 0.00 | 0.00 | 0.00 | 47 | 1010.5 |
| 20260504191603 | 22 | 274 | 11.3 | 14.5 | 0.00 | 0.00 | 0.00 | 50 | 1010.4 |
| 20260504191058 | 21 | 166 | 1.6 | 12.9 | 0.00 | 0.00 | 0.00 | 46 | 1010.6 |
| 20260504190554 | 21 | 299 | 11.3 | 16.1 | 0.00 | 0.00 | 0.00 | 47 | 1010.4 |
| 20260504190050 | 21 | 155 | 3.2 | 9.7 | 0.00 | 0.00 | 0.00 | 45 | 1010.3 |
| 20260504185548 | 22 | 194 | 11.3 | 22.5 | 0.00 | 0.00 | 0.00 | 45 | 1010.3 |
| 20260504185044 | 22 | 221 | 3.2 | 16.1 | 0.00 | 0.00 | 0.00 | 43 | 1010.4 |
| 20260504184539 | 22 | 311 | 6.4 | 22.5 | 0.00 | 0.00 | 0.00 | 47 | 1010.3 |
| 20260504184035 | 21 | 311 | 6.4 | 20.9 | 0.00 | 0.00 | 0.00 | 47 | 1010.2 |
| 20260504183532 | 21 | 2 | 4.8 | 14.5 | 0.00 | 0.00 | 0.00 | 48 | 1010.3 |
| 20260504183030 | 21 | 273 | 8.0 | 16.1 | 0.00 | 0.00 | 0.00 | 48 | 1010.6 |
| 20260504182526 | 21 | 315 | 22.5 | 29.0 | 0.00 | 0.00 | 0.00 | 46 | 1010.4 |
| 20260504182024 | 21 | 292 | 11.3 | 27.4 | 0.00 | 0.00 | 0.00 | 50 | 1010.5 |
| 20260504181521 | 21 | 187 | 6.4 | 11.3 | 0.00 | 0.00 | 0.00 | 48 | 1010.5 |
| 20260504181020 | 21 | 256 | 4.8 | 17.7 | 0.00 | 0.00 | 0.00 | 46 | 1010.5 |
| 20260504180518 | 21 | 309 | 11.3 | 37.0 | 0.00 | 0.00 | 0.00 | 48 | 1010.7 |
| 20260504180017 | 21 | 187 | 8.0 | 12.9 | 0.00 | 0.00 | 0.00 | 48 | 1010.9 |
| 20260504175513 | 20 | 304 | 17.7 | 22.5 | 0.00 | 0.00 | 0.00 | 50 | 1010.8 |
| 20260504175010 | 20 | 214 | 8.0 | 14.5 | 0.00 | 0.00 | 0.00 | 49 | 1011.1 |
| 20260504174508 | 20 | 306 | 6.4 | 14.5 | 0.00 | 0.00 | 0.00 | 48 | 1011.1 |
| 20260504174005 | 20 | 269 | 3.2 | 20.9 | 0.00 | 0.00 | 0.00 | 48 | 1011.3 |
| 20260504173501 | 20 | 261 | 9.7 | 25.7 | 0.00 | 0.00 | 0.00 | 52 | 1011.2 |
| 20260504172959 | 20 | 311 | 20.9 | 25.7 | 0.00 | 0.00 | 0.00 | 51 | 1011.3 |
| 20260504172455 | 20 | 312 | 6.4 | 24.1 | 0.00 | 0.00 | 0.00 | 50 | 1011.3 |
| 20260504171951 | 20 | 314 | 14.5 | 20.9 | 0.00 | 0.00 | 0.00 | 52 | 1011.4 |
| 20260504160135 | 17 | 295 | 6.4 | 11.3 | 0.00 | 0.00 | 0.00 | 56 | 1012.9 |
| 20260504151102 | 16 | 177 | 4.8 | 14.5 | 0.00 | 0.00 | 0.00 | 56 | 1013.5 |
| 20260504150601 | 17 | 331 | 22.5 | 24.1 | 0.00 | 0.00 | 0.00 | 57 | 1013.5 |
| 20260504141026 | 16 | 309 | 12.9 | 27.4 | 0.00 | 0.00 | 0.00 | 51 | 1013.6 |
| 20260504140523 | 16 | 297 | 4.8 | 16.1 | 0.00 | 0.00 | 0.00 | 50 | 1013.4 |
| 20260504130447 | 14 | 262 | 8.0 | 11.3 | 0.00 | 0.00 | 0.00 | 55 | 1013.4 |